EW4803 Weather Reports


Display with metric or nautical units.
time (UTC)temp
F
wind
direction
speed
MPH
gust
MPH
rain 1hr
in
rain 24hr
in
rain mn
in
humidity
%
barometer
mb
20260906164501 75 126 0.0 7.0 0.00 0.00 0.00 73 1020.3
20260906163059 74 155 2.0 9.0 0.00 0.00 0.00 74 1020.3
20260906161557 73 55 0.0 7.0 0.00 0.00 0.00 74 1020.2
20260906160056 73 91 0.0 4.0 0.00 0.00 0.00 76 1020.3
20260906154555 73 110 0.0 7.0 0.00 0.00 0.00 75 1020.3
20260906153052 72 177 0.0 7.0 0.00 0.00 0.00 77 1020.4
20260906151553 73 159 4.0 7.0 0.00 0.00 0.00 76 1020.4
20260906150049 72 188 1.0 9.0 0.00 0.00 0.00 79 1020.2
20260906144548 72 117 0.0 5.0 0.00 0.00 0.00 81 1020.2
20260906143045 71 153 0.0 5.0 0.00 0.00 0.00 84 1020.1
20260906141541 70 141 0.0 4.0 0.00 0.00 0.00 85 1020.4
20260906140042 70 157 0.0 3.0 0.00 0.00 0.00 86 1020.4
20260906134536 69 65 0.0 3.0 0.00 0.00 0.00 88 1020.3
20260906133036 69 134 0.0 1.0 0.00 0.00 0.00 93 1020.1
20260906131530 68 34 0.0 1.0 0.00 0.00 0.00 95 1020.0
20260906130028 68 30 0.0 0.0 0.00 0.00 0.00 95 1020.0
20260906124530 67 29 0.0 0.0 0.00 0.00 0.00 95 1020.0
20260906123032 66 29 0.0 0.0 0.00 0.00 0.00 96 1019.9
20260906121518 64 29 0.0 0.0 0.00 0.00 0.00 96 1019.7
20260906120014 63 29 0.0 0.0 0.00 0.00 0.00 96 1019.5
20260906114511 62 29 0.0 0.0 0.00 0.00 0.00 95 1019.2
20260906113007 61 30 0.0 0.0 0.00 0.00 0.00 96 1018.9
20260906111507 61 30 0.0 0.0 0.00 0.00 0.00 96 1018.9
20260906110003 61 30 0.0 0.0 0.00 0.00 0.00 96 1018.7
20260906104504 61 30 0.0 0.0 0.00 0.00 0.00 96 1018.6
20260906103101 60 30 0.0 0.0 0.00 0.00 0.00 96 1018.6
20260906101555 59 30 0.0 0.0 0.00 0.00 0.00 95 1018.7
20260906100054 59 30 0.0 0.0 0.00 0.00 0.00 96 1018.7
20260906094554 59 30 0.0 0.0 0.00 0.00 0.00 96 1018.4
20260906093055 59 30 0.0 0.0 0.00 0.00 0.00 96 1018.4
20260906091548 58 31 0.0 0.0 0.00 0.00 0.00 96 1018.3
20260906090047 57 30 0.0 0.0 0.00 0.00 0.00 96 1018.2
20260906084546 57 31 0.0 0.0 0.00 0.00 0.00 96 1018.2
20260906083046 57 31 0.0 0.0 0.00 0.00 0.00 96 1018.1
20260906081546 58 31 0.0 0.0 0.00 0.00 0.00 96 1018.1
20260906080046 58 31 0.0 0.0 0.00 0.00 0.00 96 1018.3
20260906074543 58 31 0.0 0.0 0.00 0.00 0.00 96 1018.2
20260906073041 58 31 0.0 0.0 0.00 0.00 0.00 96 1018.1
20260906071540 58 31 0.0 0.0 0.00 0.00 0.00 96 1018.0
20260906070039 57 31 0.0 0.0 0.00 0.00 0.00 96 1017.9
20260906064541 57 31 0.0 0.0 0.00 0.00 0.00 95 1017.6
20260906063037 57 31 0.0 0.0 0.00 0.00 0.00 95 1017.7
20260906061535 57 31 0.0 0.0 0.00 0.00 0.00 95 1017.8
20260906060035 57 31 0.0 0.0 0.00 0.00 0.00 96 1017.8
20260906054538 58 31 0.0 0.0 0.00 0.00 0.00 96 1017.6
20260906053031 57 31 0.0 0.0 0.00 0.00 0.00 95 1017.4
20260906051529 57 31 0.0 0.0 0.00 0.00 0.00 95 1017.3
20260906050027 57 31 0.0 0.0 0.00 0.00 0.00 95 1017.2
20260906044527 57 31 0.0 0.0 0.00 0.00 0.00 95 1017.5
20260906043025 57 31 0.0 0.0 0.00 0.00 0.00 95 1017.2
20260906041522 57 31 0.0 0.0 0.00 0.00 0.00 95 1017.2
20260906040020 58 31 0.0 0.0 0.00 0.00 0.00 95 1017.0
20260906034519 58 31 0.0 0.0 0.00 0.00 0.00 95 1017.0
20260906033017 58 31 0.0 0.0 0.00 0.00 0.00 95 1016.9
20260906031514 59 31 0.0 0.0 0.00 0.00 0.00 94 1016.8
20260906030013 59 31 0.0 0.0 0.00 0.00 0.00 94 1016.7
20260906024511 60 31 0.0 0.0 0.00 0.00 0.00 94 1016.7
20260906023010 61 31 0.0 0.0 0.00 0.00 0.00 94 1016.8
20260906021515 61 31 0.0 0.0 0.00 0.00 0.00 93 1016.8
20260906020005 62 31 0.0 0.0 0.00 0.00 0.00 93 1016.7
20260906014510 62 31 0.0 0.0 0.00 0.00 0.00 92 1016.8
20260906013100 63 31 0.0 0.0 0.00 0.00 0.00 91 1016.6
20260906011605 64 31 0.0 0.0 0.00 0.00 0.00 89 1016.6
20260906010052 65 31 0.0 0.0 0.00 0.00 0.00 88 1016.4
20260906004549 67 31 0.0 0.0 0.00 0.00 0.00 85 1016.2
20260906003046 68 31 0.0 0.0 0.00 0.00 0.00 83 1016.3
20260906001542 69 31 0.0 0.0 0.00 0.00 0.00 78 1016.4
20260906000042 70 47 0.0 1.0 0.00 0.00 0.00 77 1016.0
20260905234542 71 32 0.0 4.0 0.00 0.00 0.00 76 1016.1
20260905233040 72 51 0.0 5.0 0.00 0.00 0.00 77 1016.2
20260905231539 72 17 1.0 6.0 0.00 0.00 0.00 76 1016.3
20260905230038 73 34 1.0 8.0 0.00 0.00 0.00 77 1016.3
20260905224537 73 5 1.0 5.0 0.00 0.00 0.00 77 1016.0
20260905223037 74 13 3.0 9.0 0.00 0.00 0.00 77 1015.9
20260905221536 73 17 0.0 4.0 0.00 0.00 0.00 78 1015.9
20260905220036 73 341 2.0 10.0 0.00 0.00 0.00 78 1016.1
20260905214536 74 48 2.0 6.0 0.00 0.00 0.00 77 1016.1
20260905213033 74 28 3.0 5.0 0.00 0.00 0.00 80 1016.0
20260905211532 73 63 0.0 3.0 0.00 0.00 0.00 83 1016.0
20260905210030 73 360 1.0 6.0 0.00 0.00 0.00 83 1016.1
20260905204530 73 76 1.0 6.0 0.00 0.00 0.00 83 1015.8
20260905203029 73 105 2.0 6.0 0.00 0.00 0.00 84 1015.7
20260905201526 73 90 0.0 3.0 0.00 0.00 0.00 88 1015.9
20260905200032 71 150 0.0 2.0 0.00 0.00 0.00 90 1016.0
20260905194522 71 123 3.0 5.0 0.00 0.00 0.00 89 1016.0
20260905193025 71 28 0.0 2.0 0.00 0.00 0.00 92 1016.0
20260905191526 71 360 0.0 4.0 0.00 0.00 0.00 92 1016.0
20260905190030 70 28 3.0 9.0 0.00 0.00 0.00 93 1016.2
20260905184525 70 15 0.0 6.0 0.00 0.01 0.00 93 1016.2
20260905183018 70 82 1.0 9.0 0.00 0.01 0.00 93 1016.1
20260905181517 70 36 3.0 9.0 0.00 0.01 0.00 93 1016.0
20260905180016 71 10 3.0 6.0 0.00 0.01 0.00 93 1016.1
20260905174524 71 17 2.0 8.0 0.00 0.01 0.00 93 1016.1
20260905173016 71 22 2.0 7.0 0.00 0.01 0.00 93 1016.0
20260905171514 71 53 3.0 9.0 0.00 0.01 0.00 94 1016.0
20260905170015 71 18 2.0 9.0 0.00 0.01 0.00 94 1016.2